CAPE
620 229 233 553 342 102 31 68 29 1 41 67 137 204 207 321 317 39 116 100 264 1241 1491 1796 2010 1796 1071 1114 1268 1270 1185 929 1257 1576 1520 1447 1420 1535 1623 1240 991 1108 1108 1269 1268 1216 1194 1059 631
54 30 444 761 223 68 76 33 25 53 114 146 81 100 122 325 756 483 387 191 819 1342 1377 1590 2267 2038 1397 1237 1256 1295 981 988 1088 1319 1508 1334 1276 1220 1331 1404 1145 998 1120 1280 1284 1266 1408 1133 1167
284 1487 982 648 270 9 85 49 168 114 71 194 3 43 241 796 637 336 557 482 1050 1136 1265 1540 2651 2223 1241 1149 1329 1324 1378 1142 1308 1350 1374 1121 1005 1037 1053 1109 1150 1193 1080 1081 1207 1228 1540 1338 1195
1212 1395 1396 1019 413 81 18 74 479 213 33 2 19 130 302 736 597 702 615 886 909 1019 1281 2058 2725 2114 1511 1060 1137 1095 1104 1144 1296 1177 1004 859 1143 1026 1038 1024 1149 1334 1139 1156 1149 1118 1596 1294 1211
675 1056 1035 864 65 0 0 82 152 221 10 8 17 127 490 599 732 619 748 704 734 945 1223 1843 2868 2815 2370 1877 1383 1454 1488 1317 1241 895 838 821 1078 1234 1131 1136 1106 1148 1313 1035 1176 1506 1629 1206 1229
81 445 384 38 1 0 94 395 296 76 38 113 154 177 262 619 676 620 528 487 614 1060 1478 1725 2306 2769 2582 1702 1625 1611 1605 1438 1225 938 994 1072 1140 1035 1112 1068 999 1082 1136 1212 1035 1518 1665 925 1090
395 519 439 697 19 0 122 356 134 91 53 15 34 12 240 493 507 408 273 345 561 1123 1288 1437 1401 1525 1649 1496 1456 1541 1523 1413 1332 1357 1359 1275 1137 1122 1394 1235 1176 1271 1289 1379 1092 1236 1574 848 863
377 637 753 949 19 0 58 133 133 45 193 32 13 79 281 284 333 184 211 366 458 891 1030 1156 1274 1200 1218 1237 2206 2093 1876 1668 1512 1471 1375 1218 1185 1474 1410 1380 1431 1052 1188 1299 1352 1468 1284 860 984
444 41 236 461 4 2 0 20 81 151 35 58 28 30 96 217 300 235 536 630 565 649 726 819 958 753 874 933 1521 2250 1750 1661 1541 1315 1190 1563 1100 1119 1123 1013 1333 1088 1151 1538 1177 830 1188 1512 1602
170 76 169 382 324 0 0 30 128 148 53 0 0 67 186 243 246 519 540 570 514 515 755 679 732 544 587 1077 1087 1314 1003 945 834 976 890 961 1004 776 987 1133 1370 1174 1271 1207 1210 1546 1729 1397 670
188 10 91 315 698 9 0 0 7 7 7 0 4 1 147 199 352 427 426 371 376 350 595 602 466 486 532 840 681 721 817 819 784 939 852 629 930 865 1306 898 955 955 1603 1224 1623 1548 1407 989 954
51 241 421 682 478 22 20 2 7 0 0 0 0 0 83 236 324 332 298 247 181 147 296 339 393 361 309 314 397 676 920 797 669 610 633 481 605 681 599 929 757 1128 1125 1498 1315 1009 1123 931 597
354 334 356 503 519 302 260 44 4 10 0 0 0 0 0 177 246 264 248 228 183 76 52 78 234 180 176 81 482 607 724 866 758 543 601 524 501 577 509 715 865 1244 1249 1016 1050 747 683 660 203
273 385 518 465 557 330 24 16 7 0 0 0 0 0 0 0 18 210 118 126 57 55 8 3 100 106 75 106 494 581 478 491 555 500 481 619 640 643 422 492 971 1333 1402 1240 790 583 463 268 33
252 197 415 324 174 154 67 59 0 0 0 0 0 0 0 0 0 0 58 12 18 15 15 51 77 133 89 238 398 639 560 516 630 614 507 675 745 571 720 565 711 1354 1166 1076 838 713 441 226 97
677 763 415 25 214 48 0 54 0 0 0 0 0 0 0 0 0 0 0 0 0 35 33 93 250 216 139 83 298 584 482 552 662 696 642 693 805 627 483 686 622 969 1136 913 975 976 938 602 427
97 190 129 9 1 103 5 0 0 0 0 0 0 0 0 0 0 0 0 0 0 5 96 174 297 299 273 186 347 487 450 260 335 469 528 557 718 687 690 626 590 449 642 683 849 919 1036 670 473
19 26 43 133 128 69 60 0 0 0 0 0 0 0 0 0 0 0 0 0 0 0 37 288 364 405 347 354 354 295 251 209 222 260 421 616 610 618 629 740 552 211 192 225 504 863 859 1021 811
231 305 377 283 164 119 93 49 20 6 33 0 0 0 0 0 0 0 0 0 0 0 28 260 333 381 388 388 488 379 446 306 225 327 308 455 773 745 635 588 508 487 356 346 340 546 685 808 855
445 495 365 252 184 229 119 166 104 0 26 93 0 0 0 0 0 0 0 0 0 0 16 133 235 280 338 536 562 488 426 431 426 334 394 317 335 825 1017 925 758 577 659 635 586 782 1150 1099 605
43 142 160 260 146 327 199 223 51 33 163 215 184 0 0 0 0 0 0 0 6 38 30 58 152 261 329 385 364 435 539 662 624 578 565 566 459 435 776 1080 1056 881 551 659 509 309 520 800 734
143 6 28 73 139 299 4 11 0 21 103 420 409 80 0 0 0 0 0 0 14 107 112 122 84 156 272 357 593 696 763 834 892 962 862 868 759 708 744 894 1046 983 785 736 671 339 462 318 585
44 0 39 0 0 20 19 0 0 0 120 235 257 381 174 40 0 0 0 4 20 138 326 249 214 192 399 527 680 765 794 897 942 1097 1139 1044 1075 976 1016 953 989 957 864 732 767 696 563 470 666
45 2 0 0 0 0 0 0 0 0 8 56 139 339 387 254 56 0 0 10 21 73 303 444 382 457 419 803 821 920 955 1030 1168 1238 1286 1387 1369 1375 1240 1146 994 905 838 641 424 490 426 471 528
0 0 0 17 10 2 0 0 0 0 0 10 44 31 299 358 340 50 0 0 1 35 158 411 454 470 602 678 1131 1187 1174 1159 1255 1431 1509 1704 1763 2330 2288 1650 1010 820 761 686 531 539 509 572 580
0 0 0 2 0 0 0 0 0 0 0 0 0 0 0 306 352 246 120 0 0 60 177 255 409 598 595 625 1004 1277 1409 1421 1412 1498 1682 1763 1931 2284 2381 2404 2002 1474 937 664 668 790 928 959 496
0 0 0 0 0 0 0 0 0 0 0 0 0 0 0 0 50 363 350 218 152 225 321 423 653 702 788 968 1059 1271 1591 1433 1795 2101 2161 2316 2370 2517 2466 2104 1926 1862 1751 1717 1701 1652 1727 1621 1529
0 0 0 0 0 0 0 0 0 0 0 0 0 0 0 0 0 4 9 47 100 318 497 447 132 120 625 1188 1342 1620 2008 365 160 0 0 0 331 2416 2602 2472 2184 1948 1723 1574 1443 1327 1234 1260 1303
0 0 0 0 0 0 0 0 0 0 0 0 0 0 0 0 0 0 2 5 18 0 0 0 274 1850 2060 1623 1938 1816 51 2 0 0 24 2 0 1087 2324 2132 1855 1712 1766 1574 1256 1135 1047 1148 1169
0 0 0 0 0 0 0 0 0 0 0 0 0 0 4 16 39 152 348 464 632 542 484 1019 2176 2477 2104 1888 1515 614 380 106 45 338 433 99 10 1843 2264 2044 2033 1913 1642 1354 988 920 940 1044 1055
CIN
-198 -286 -277 -141 -157 -257 -110 -87 -143 -41 -209 -215 -132 -114 -105 -148 -106 -166 -267 -229 -155 -3 -0 -1 -0 -0 -6 -0 -0 -0 -0 -0 -0 -0 -0 -0 -0 -0 -0 -0 -4 -2 -0 -0 -0 -1 -10 -18 -43
-413 -415 -204 -127 -149 -82 -68 -138 -166 -179 -168 -199 -192 -174 -169 -191 -171 -186 -177 -187 -69 -4 -1 -1 -0 -0 -0 -0 -0 -0 -5 -1 -3 -1 -0 -0 -3 -0 -0 -0 -0 -4 -5 -0 -0 -0 -0 -2 -7
-295 -91 -131 -141 -195 -42 -65 -103 -130 -194 -222 -169 -86 -244 -176 -148 -174 -209 -169 -138 -35 -24 -9 -0 -0 -0 -1 -0 -0 -1 -0 -0 -1 -2 -0 -0 -0 -0 -0 -0 -0 -0 -8 -9 -1 -0 -0 -0 -0
-227 -187 -180 -83 -57 -79 -129 -170 -115 -153 -224 -56 -242 -232 -230 -189 -182 -162 -151 -65 -64 -49 -14 -0 -0 -0 -0 -9 -6 -6 -4 -1 -2 -3 -7 -6 -0 -0 -0 -0 -0 -0 -0 -0 -0 -0 -0 -0 -0
-376 -237 -83 -86 -74 -0 -0 -143 -142 -124 -203 -56 -287 -298 -198 -157 -165 -181 -119 -96 -99 -49 -18 -0 -0 -0 -0 -0 -7 -1 -0 -0 -3 -16 -9 -4 -0 -0 -0 -0 -0 -0 -0 -0 -0 -0 -0 -0 -0
-230 -277 -89 -68 -23 -0 -82 -79 -98 -162 -240 -266 -282 -295 -251 -188 -190 -164 -161 -159 -124 -68 -11 -0 -0 -0 -0 -4 -0 -0 -0 -0 -1 -13 -4 -0 -0 -0 -0 -0 -0 -0 -0 -0 -0 -0 -0 -2 -0
-151 -177 -89 -62 -34 -0 -89 -102 -129 -182 -232 -93 -298 -75 -282 -191 -196 -213 -224 -173 -117 -54 -33 -14 -8 -1 -0 -0 -0 -0 -0 -0 -0 -1 -0 -0 -0 -0 -0 -0 -0 -0 -0 -0 -0 -0 -0 -17 -11
-256 -173 -80 -58 -54 -0 -44 -101 -173 -195 -150 -320 -399 -336 -261 -252 -233 -281 -231 -164 -119 -58 -52 -55 -40 -29 -22 -11 -0 -0 -0 -0 -0 -0 -0 -0 -0 -0 -0 -0 -0 -0 -0 -0 -0 -0 -0 -14 -19
-286 -188 -92 -30 -54 -52 -0 -52 -168 -191 -263 -262 -353 -403 -381 -322 -258 -232 -110 -76 -86 -68 -69 -74 -68 -88 -62 -42 -3 -0 -0 -0 -0 -3 -1 -0 -7 -7 -2 -4 -0 -0 -0 -0 -1 -15 -3 -2 -3
-283 -171 -89 -79 -51 -16 -0 -94 -153 -179 -235 -0 -0 -427 -349 -304 -283 -181 -135 -118 -118 -110 -87 -103 -89 -104 -88 -16 -19 -10 -24 -31 -43 -32 -36 -31 -32 -48 -27 -13 -0 -2 -0 -4 -8 -1 -6 -7 -50
-307 -152 -171 -108 -56 -41 -0 -0 -194 -192 -292 -94 -558 -73 -369 -316 -228 -192 -188 -226 -246 -222 -141 -139 -148 -127 -101 -52 -76 -73 -63 -65 -66 -55 -69 -87 -52 -64 -32 -63 -41 -36 -8 -26 -7 -23 -28 -49 -51
-254 -199 -151 -92 -123 -66 -50 -77 -157 -12 -0 -0 -0 -0 -447 -317 -257 -242 -240 -252 -270 -304 -254 -221 -194 -194 -204 -185 -160 -109 -77 -88 -106 -121 -112 -131 -108 -100 -114 -91 -107 -69 -72 -43 -57 -75 -72 -79 -108
-253 -218 -175 -137 -78 -58 -63 -121 -67 -204 -0 -0 -0 -0 -0 -320 -266 -251 -266 -282 -330 -380 -379 -355 -267 -281 -276 -310 -156 -140 -117 -96 -115 -154 -147 -153 -145 -137 -151 -129 -119 -95 -102 -120 -112 -135 -138 -144 -181
-274 -267 -210 -127 -93 -65 -113 -102 -67 -0 -0 -0 -0 -0 -0 -0 -161 -256 -294 -308 -410 -435 -461 -146 -371 -358 -353 -335 -202 -181 -187 -183 -163 -173 -178 -151 -138 -142 -181 -165 -119 -94 -97 -112 -153 -184 -192 -220 -267
-318 -257 -212 -130 -108 -99 -134 -141 -0 -0 -0 -0 -0 -0 -0 -0 -0 -0 -395 -400 -408 -447 -444 -411 -409 -367 -397 -298 -239 -188 -199 -185 -159 -157 -181 -163 -149 -170 -139 -168 -139 -110 -131 -136 -154 -159 -191 -238 -260
-141 -170 -141 -131 -80 -101 -0 -111 -0 -0 -0 -0 -0 -0 -0 -0 -0 -0 -0 -0 -0 -410 -425 -381 -278 -319 -404 -453 -317 -212 -259 -220 -189 -175 -176 -180 -166 -181 -203 -153 -176 -148 -161 -167 -146 -147 -137 -173 -202
-228 -116 -178 -54 -3 -95 -19 -0 -0 -0 -0 -0 -0 -0 -0 -0 -0 -0 -0 -0 -0 -131 -459 -421 -358 -356 -399 -468 -385 -311 -310 -417 -350 -282 -287 -267 -212 -218 -200 -204 -202 -237 -189 -171 -145 -152 -139 -167 -193
-138 -172 -159 -114 -85 -102 -113 -0 -0 -63 -0 -0 -0 -0 -0 -0 -0 -0 -0 -0 -0 -0 -648 -482 -456 -426 -465 -472 -471 -533 -536 -524 -492 -489 -384 -288 -278 -275 -263 -201 -240 -331 -320 -311 -216 -129 -161 -132 -149
-125 -140 -153 -138 -143 -114 -130 -112 -216 -207 -280 -0 -0 -0 -0 -0 -0 -0 -0 -0 -0 -0 -797 -567 -581 -594 -587 -629 -517 -568 -483 -549 -600 -497 -427 -360 -288 -255 -281 -235 -234 -244 -234 -196 -244 -191 -150 -131 -149
-176 -160 -151 -172 -137 -122 -166 -135 -180 -0 -273 -268 -0 -0 -0 -0 -0 -0 -0 -0 -0 -0 -619 -743 -667 -654 -651 -481 -520 -551 -533 -510 -485 -532 -494 -522 -485 -298 -239 -230 -221 -250 -215 -215 -218 -186 -131 -135 -204
-233 -200 -169 -154 -132 -171 -165 -126 -144 -213 -233 -248 -272 -0 -0 -0 -0 -0 -0 -0 -339 -668 -794 -833 -761 -663 -653 -612 -644 -605 -584 -544 -533 -545 -529 -520 -557 -521 -370 -276 -238 -263 -291 -232 -239 -266 -194 -96 -196
-172 -60 -193 -148 -124 -65 -37 -32 -0 -182 -221 -205 -190 -258 -0 -0 -0 -0 -0 -0 -624 -588 -648 -659 -758 -797 -738 -722 -607 -496 -394 -398 -378 -378 -398 -422 -490 -510 -486 -389 -332 -316 -354 -302 -236 -321 -205 -214 -102
-73 -6 -120 -0 -0 -22 -91 -0 -0 -0 -145 -163 -217 -209 -299 -407 -0 -0 -0 -557 -636 -517 -537 -606 -681 -747 -665 -668 -591 -551 -507 -467 -473 -431 -420 -431 -382 -390 -398 -445 -380 -351 -346 -349 -291 -240 -241 -257 -149
-70 -49 -0 -0 -0 -0 -0 -0 -0 -0 -62 -232 -246 -234 -229 -259 -442 -0 -0 -537 -608 -567 -507 -548 -624 -657 -677 -647 -639 -571 -518 -477 -506 -491 -441 -364 -350 -340 -368 -392 -419 -436 -417 -404 -414 -311 -255 -241 -218
-9 -0 -0 -48 -70 -17 -0 -0 -0 -0 -0 -60 -223 -331 -246 -273 -259 -426 -0 -0 -51 -656 -592 -556 -640 -653 -620 -632 -607 -585 -543 -475 -439 -415 -383 -319 -305 -231 -237 -324 -417 -447 -429 -415 -383 -322 -293 -233 -214
-0 -0 -6 -11 -0 -0 -0 -0 -0 -0 -0 -0 -0 -0 -0 -284 -310 -347 -412 -0 -0 -569 -610 -621 -526 -594 -641 -639 -610 -598 -515 -448 -447 -421 -339 -321 -266 -223 -211 -151 -228 -277 -330 -363 -365 -315 -251 -192 -245
-0 -0 -0 -0 -0 -0 -0 -0 -0 -0 -0 -0 -0 -0 -0 -0 -313 -293 -325 -475 -495 -484 -519 -502 -488 -472 -474 -547 -549 -517 -469 -462 -323 -170 -90 -102 -175 -211 -163 -214 -216 -192 -169 -170 -161 -140 -100 -65 -65
-0 -0 -0 -0 -0 -0 -0 -0 -0 -0 -0 -0 -0 -0 -0 -0 -0 -347 -390 -382 -356 -632 -473 -445 -399 -663 -641 -465 -434 -349 -267 -700 -688 -0 -0 -0 -332 -119 -161 -134 -182 -195 -176 -172 -150 -177 -143 -103 -84
-0 -0 -0 -0 -0 -0 -0 -0 -0 -0 -0 -0 -0 -0 -0 -0 -0 -74 -189 -196 -696 -0 -0 -0 -603 -463 -369 -433 -359 -363 -1112 -1058 -0 -0 -384 -242 -0 -59 -164 -170 -161 -182 -170 -151 -138 -180 -156 -111 -89
-0 -0 -0 -0 -0 -0 -0 -0 -0 -0 -0 -0 -0 -27 -584 -570 -561 -538 -473 -496 -433 -474 -621 -636 -452 -340 -316 -331 -354 -578 -548 -689 -643 -509 -443 -567 -516 -39 -137 -230 -144 -166 -161 -175 -201 -179 -146 -107 -91
Wind_Speed
9 7 4 2 1 2 1 4 2 5 2 1 9 2 5 3 2 3 7 10 17 15 12 14 18 18 20 19 18 17 16 17 17 16 15 14 14 12 12 12 11 9 8 9 9 8 6 4 3
7 10 1 1 1 4 4 2 10 8 5 10 8 4 4 4 6 10 8 13 18 14 12 12 18 18 18 18 17 16 16 16 16 15 14 13 12 11 11 10 10 8 7 7 9 10 9 7 6
7 8 4 4 2 3 3 3 9 9 12 6 5 5 4 4 11 13 11 18 16 13 11 13 19 19 19 18 17 16 15 15 15 15 13 12 11 10 10 10 9 9 7 7 7 7 8 8 8
1 2 3 4 2 4 3 7 11 10 3 6 9 7 5 4 12 8 17 17 16 13 11 16 19 20 19 19 17 16 15 14 13 13 12 11 11 11 10 10 10 9 9 8 8 8 8 8 8
2 2 4 2 3 1 3 7 12 5 5 7 3 4 6 7 13 19 17 15 15 11 9 13 18 19 18 18 17 16 16 15 14 13 12 11 11 11 10 10 10 10 10 9 9 8 8 9 8
4 2 3 2 3 5 4 5 5 3 5 9 8 7 4 14 17 15 15 14 13 12 10 12 19 19 19 19 18 17 16 16 14 13 12 11 11 10 10 10 11 11 11 10 9 9 9 9 10
2 2 2 3 1 4 6 6 5 6 6 5 13 6 3 9 12 16 13 12 12 11 10 10 11 14 18 18 18 17 16 15 14 13 12 11 11 10 11 11 11 11 11 10 11 10 10 10 10
4 2 4 2 3 3 9 6 3 8 3 8 10 7 6 10 14 13 11 8 8 8 9 8 8 10 10 11 18 17 16 15 14 12 12 11 11 11 11 11 11 12 12 12 12 12 12 11 11
4 4 2 3 2 2 7 5 5 4 11 3 5 8 12 19 16 12 10 6 6 7 5 5 6 5 5 6 10 14 17 15 14 13 13 10 4 5 7 7 10 11 12 12 13 14 13 13 14
5 3 3 3 6 5 4 9 8 5 5 4 11 16 21 20 17 16 13 11 10 11 8 6 5 5 5 6 5 5 6 4 5 5 6 4 5 4 6 8 11 12 12 13 14 14 14 9 3
3 3 6 7 11 7 8 7 4 12 2 6 20 21 22 20 16 16 15 17 20 13 9 10 6 6 7 6 4 2 3 3 3 6 5 4 4 4 4 3 3 3 10 4 7 5 4 4 4
4 2 5 12 14 6 8 6 6 1 3 11 18 21 19 20 17 16 15 13 10 12 12 9 9 7 7 5 5 4 4 4 4 5 6 4 3 4 4 3 5 4 4 4 4 3 4 5 4
1 6 9 18 19 2 7 5 6 4 11 12 15 14 18 17 17 15 16 14 11 11 12 12 11 10 9 8 4 4 6 5 6 5 5 5 4 4 3 5 5 6 5 5 5 5 5 5 4
2 9 12 11 14 5 9 3 7 3 13 14 13 11 9 16 17 14 12 14 13 12 14 14 15 12 11 10 8 7 5 6 5 5 7 8 6 6 4 5 6 6 6 5 5 7 5 5 2
5 10 15 3 2 3 9 5 1 12 13 15 14 13 11 10 12 17 18 16 17 14 13 15 15 13 13 12 9 7 7 6 6 7 8 8 9 7 6 5 4 6 5 6 4 5 3 4 4
5 4 6 5 1 4 5 3 3 9 14 14 15 13 15 14 12 13 14 15 14 13 15 14 13 14 13 12 9 8 7 7 8 7 7 10 10 9 7 6 6 7 5 5 5 4 4 5 5
2 3 5 8 7 2 2 4 5 9 11 13 14 13 14 13 9 12 9 12 15 16 14 14 14 14 15 12 9 9 9 8 8 6 7 9 10 10 8 7 7 5 4 4 5 4 4 4 4
5 4 5 5 2 3 3 3 7 10 11 13 13 11 9 12 16 16 10 12 13 14 15 15 13 13 14 9 7 5 5 5 4 6 8 10 9 10 8 7 7 5 4 4 3 5 3 3 5
3 4 6 6 8 1 5 3 12 11 7 10 9 9 9 12 13 10 11 12 12 12 13 15 14 13 10 6 5 3 8 6 6 7 7 7 7 9 8 7 5 5 6 8 7 5 6 3 3
8 6 8 12 12 6 4 4 3 8 11 14 14 11 13 7 6 8 8 9 10 13 14 12 15 13 12 10 9 5 5 5 6 6 8 9 9 9 9 10 9 8 7 6 6 5 3 3 5
11 8 8 5 3 4 5 4 4 4 6 7 8 10 12 12 11 11 10 12 10 10 13 13 15 14 13 14 4 2 1 2 3 4 5 9 11 11 11 10 10 8 6 7 8 5 7 8 4
3 8 12 5 3 4 3 4 5 6 6 7 11 11 13 13 10 10 13 11 13 16 12 15 15 17 16 14 11 12 10 8 6 4 6 6 8 11 12 13 11 11 8 10 10 8 9 6 9
10 2 9 3 6 4 0 4 8 3 6 10 12 15 17 15 14 14 16 16 16 15 16 16 16 15 16 14 15 11 11 9 5 4 6 7 7 8 9 10 11 12 8 9 10 7 9 8 7
5 6 4 4 4 3 5 6 6 5 11 6 6 14 16 16 13 11 14 13 13 12 13 13 14 16 15 13 14 14 16 13 6 6 7 7 6 7 8 9 10 10 10 10 9 10 8 9 8
5 7 4 4 4 7 2 4 11 4 8 11 13 13 16 14 11 9 13 13 12 14 14 13 14 17 16 14 14 17 17 14 12 10 8 8 6 5 7 7 6 6 9 8 6 7 7 9 9
5 8 8 6 5 3 2 4 6 6 5 1 5 9 8 10 10 10 15 14 14 15 13 13 15 18 15 15 16 14 15 9 9 9 10 7 8 7 5 6 5 7 7 7 8 7 8 7 8
3 4 4 9 2 3 3 7 6 6 9 8 6 6 6 9 12 15 13 13 14 12 12 14 14 16 15 16 14 14 9 7 5 11 5 9 6 5 7 7 6 5 6 7 7 6 7 7 8
4 6 2 4 4 2 5 4 4 10 7 7 9 8 9 8 6 8 8 7 5 4 8 6 5 6 6 4 6 1 8 9 5 7 21 14 23 8 6 7 6 6 6 7 7 5 5 6 6
4 2 7 7 4 6 2 6 4 9 6 8 5 7 7 7 7 6 6 6 4 4 4 3 3 4 5 4 6 11 8 7 6 2 21 11 13 28 8 6 6 7 6 8 7 6 7 7 6
2 2 4 7 2 2 5 5 6 7 5 9 8 8 7 7 8 8 9 9 9 8 8 6 4 4 5 3 5 8 7 4 5 11 12 14 20 23 13 7 8 8 9 7 8 7 6 6 8
Wind_Direction
156 163 147 106 84 135 300 75 177 128 180 234 154 247 141 15 188 197 136 131 136 146 153 153 151 149 146 149 146 143 139 138 139 134 139 137 138 143 149 154 155 154 150 144 147 146 152 171 189
152 140 40 77 355 51 305 63 148 174 164 115 113 108 51 73 63 115 116 141 140 146 152 157 154 150 152 153 152 150 147 150 146 142 145 140 140 145 148 153 159 165 165 162 156 158 160 172 191
177 188 147 139 120 166 169 146 120 132 146 166 121 61 79 115 114 145 127 141 141 148 154 163 158 153 157 160 159 157 156 161 153 150 156 156 163 169 164 165 168 181 182 185 181 178 167 174 185
241 42 45 66 297 260 206 148 144 134 90 64 106 76 78 132 141 136 139 143 144 148 157 165 163 159 163 164 164 167 166 169 164 164 170 175 183 183 180 183 187 188 195 200 198 192 180 179 186
36 58 39 321 264 154 81 155 158 147 111 100 112 101 80 124 116 135 145 147 143 148 155 159 167 165 167 168 173 177 176 179 178 173 175 181 188 189 190 196 205 207 205 206 207 209 198 185 192
18 79 46 7 262 111 109 158 134 76 75 113 89 93 144 135 137 148 151 152 151 149 153 164 169 171 171 173 178 183 182 182 183 179 181 185 187 195 200 213 222 220 222 215 212 212 209 203 198
111 64 254 323 201 123 156 148 158 137 133 115 134 92 83 150 157 151 153 151 153 156 156 164 170 174 174 177 183 186 188 189 186 184 190 194 197 204 212 219 231 232 230 218 218 216 216 222 219
109 83 301 256 294 103 152 155 141 119 139 108 139 152 172 178 156 142 142 143 155 163 168 163 163 173 177 183 186 189 192 193 189 193 201 204 210 214 216 215 226 226 222 220 215 217 220 221 232
159 53 332 2 353 165 142 135 152 101 137 186 190 149 156 151 144 135 130 135 157 171 180 176 174 168 166 174 190 190 193 195 196 201 207 211 207 223 223 214 221 224 222 223 226 221 220 223 230
53 73 282 284 284 199 160 129 138 118 146 37 92 106 136 148 149 147 159 168 178 186 190 178 174 171 158 183 199 183 202 197 194 200 209 196 203 210 221 225 221 224 225 230 231 230 236 227 221
333 203 329 317 332 186 148 145 92 129 256 218 146 144 153 153 160 162 174 180 188 185 190 186 171 173 179 195 180 186 198 195 206 209 206 210 202 211 221 219 237 214 237 230 247 245 246 224 217
356 327 335 323 315 214 147 119 120 215 204 147 147 144 152 160 170 175 184 189 180 188 193 185 181 176 188 200 190 188 190 197 209 214 212 202 213 212 216 215 222 216 225 223 238 243 252 252 262
148 328 343 326 307 354 112 120 133 98 113 136 144 154 152 168 180 186 191 188 185 189 190 192 185 187 193 205 187 189 202 202 212 211 208 196 211 219 214 224 227 225 209 206 221 236 241 239 239
167 291 316 313 308 7 100 84 94 147 129 141 149 168 175 170 184 191 193 191 193 195 197 185 191 192 191 204 195 201 205 204 200 213 222 208 212 222 213 216 228 233 220 215 209 230 229 247 201
10 353 336 290 246 162 117 15 100 148 147 153 166 178 192 208 180 186 196 194 192 199 192 191 191 192 193 203 205 200 210 199 207 214 215 212 210 221 219 218 225 226 218 222 206 230 215 229 214
18 46 333 286 9 225 104 210 128 163 160 171 181 191 196 210 212 206 185 205 202 190 192 192 192 194 197 201 202 206 202 203 212 211 206 209 212 212 217 225 230 226 207 211 217 216 206 230 218
37 254 232 302 192 141 102 139 204 172 181 183 195 198 207 210 223 225 208 189 185 196 191 192 193 193 201 205 206 209 208 206 217 213 206 205 207 209 211 221 226 211 203 200 218 215 196 194 226
192 234 261 250 287 156 138 135 168 183 187 198 203 207 214 209 213 213 208 203 179 185 192 193 193 195 195 204 213 212 206 208 207 209 213 203 207 205 202 222 230 205 205 222 233 232 207 193 209
206 216 256 239 248 134 216 124 191 194 201 204 216 216 215 219 219 206 204 201 192 179 182 193 187 195 180 181 190 205 212 200 205 216 214 212 210 213 203 219 230 213 212 225 199 198 215 252 180
252 263 267 282 230 153 157 242 145 179 215 207 210 215 224 222 217 208 201 194 186 185 189 190 200 190 193 198 199 195 181 209 205 193 198 204 205 212 210 213 223 219 221 233 214 190 208 222 176
255 230 257 210 70 58 110 329 253 196 212 203 223 215 223 209 210 213 203 203 198 198 194 194 199 199 203 206 183 164 141 258 185 206 205 204 194 203 207 209 216 218 207 224 229 207 210 245 213
266 231 237 162 121 183 74 257 264 222 228 220 220 212 222 217 216 208 212 203 199 210 203 207 201 202 204 195 193 202 217 226 230 231 235 235 211 205 202 208 209 209 206 211 218 206 218 201 239
225 78 171 152 92 112 106 66 266 160 230 234 225 222 218 221 208 206 207 209 213 207 207 205 209 211 213 201 207 209 219 220 209 206 218 223 236 239 223 209 208 214 212 219 223 216 205 204 215
266 108 65 86 90 28 231 146 277 189 212 240 220 226 226 220 215 212 221 217 221 216 212 213 210 218 214 209 210 211 217 221 205 207 211 230 243 242 243 238 223 216 208 208 204 217 218 216 223
96 63 353 4 16 221 257 141 241 247 231 209 210 222 225 224 217 201 214 210 214 214 213 213 216 228 218 212 212 215 217 217 223 217 221 222 227 234 242 229 225 219 209 204 189 205 217 214 214
199 153 158 200 195 264 47 233 255 252 257 140 229 231 209 205 216 207 215 207 212 221 215 215 220 232 222 221 217 215 220 221 221 218 222 228 226 229 215 241 237 238 225 207 200 206 222 213 221
186 186 175 108 38 83 240 302 322 31 43 47 11 49 201 194 204 221 225 208 211 223 220 217 225 236 232 225 228 227 223 214 348 357 332 300 277 240 256 231 224 231 233 214 201 206 216 210 224
178 154 75 21 131 197 316 299 267 357 337 35 21 10 359 4 359 358 352 1 341 274 267 269 340 334 324 284 244 170 94 84 54 77 335 301 306 272 244 250 224 213 233 232 218 203 214 211 222
348 65 59 110 108 145 125 285 271 272 200 111 48 30 20 26 19 359 334 327 306 300 339 336 340 286 263 184 162 130 124 91 93 155 251 244 283 280 233 237 262 231 224 233 227 224 213 215 230
207 154 105 114 231 79 129 286 349 354 350 97 71 43 19 26 21 10 358 348 344 336 332 356 83 77 68 102 76 119 159 204 234 212 234 235 226 237 228 178 230 235 230 231 225 239 231 226 238